Tracking 19638 objects as of 20-Apr-2019
HD Live streaming from Space Station
objects crossing your sky now

THORAD DELTA 1 DEB

Track THORAD DELTA 1 DEB now!
10-day predictions


NORAD ID: 8166
Int'l Code: 1974-089AG
Perigee: 1,436.4 km
Apogee: 1,497.1 km
Inclination: 101.7 °
Period: 115.1 minutes
Semi major axis: 7837 km
RCS: 0.0173 m2 (small)
Launch date: November 15, 1974
Source: United States (US)
Launch site: AIR FORCE WESTERN TEST RANGE (AFWTR)

Note: This is SATELLITE DEBRIS
aabbcc
Your satellite tracking list
Your tracking list is empty




NASA's NSSDC Master Catalog

Two Line Element Set (TLE):
1  8166U 74089AG  19109.86437594  .00000053  00000-0  62799-3 0  9999
2  8166 101.7078  78.6310 0038748 314.2028 120.1673 12.51164272 27226
Source of the keplerian elements: AFSPC